Other Surface Observations
Issued by NWS

Home | Current Version | Previous Version | Text Only | Print | Product List | Glossary On
Versions: 1 2 3 4 5 6 7 8 9 10 11 12 13 14 15 16 17 18 19 20 21 22 23 24 25 26 27 28 29 30 31 32 33 34 35 36 37 38 39 40 41 42 43 44 45 46 47 48 49 50
021
SXUS52 KTAE 270218
OSOTAE
OSOTAE
North Florida/South Alabama/Southwest Georgia Weather Roundup
National Weather Service Tallahassee Florida
1000 PM EDT MON SEP 26 2016

Note: "fair" indicates few or no clouds below 12,000 feet with no
significant weather and/or obstructions to visibility.

!FLZ017-115-028-034-025-270300
...North Florida...

CITY           SKY/WX    TMP DP  RH WIND       PRES   REMARKS
TALLAHASSEE    PTCLDY    75  73  93 CALM      29.99R
APALACHICOLA   PTCLDY    72  72 100 CALM      29.97R
PERRY          PTCLDY    74  70  85 CALM      30.00R
CROSS CITY     CLOUDY    77  70  78 S7        30.01R
JACKSONVILLE   MOCLDY    77  74  90 CALM      29.97S
$$

!FLZ112-006-005-002-011-270300
...Florida Panhandle...

CITY           SKY/WX    TMP DP  RH WIND       PRES   REMARKS
MARIANNA       CLOUDY    73  72  96 CALM      29.98R
BONIFAY        FAIR      71  68  90 E3        30.00R
PANAMA CITY NW CLEAR     72  70  94 W3        29.97R
TYNDALL AFB    CLEAR     75  71  87 NE2       29.98R
TYND DRONE APT FAIR      74  72  92 NE6       29.98R
DE FUNIAK SPR  LGT RAIN  71  70  99 CALM      30.00R
EGLIN AFB      PTCLDY    73  69  85 CALM      29.97R
DESTIN         CLEAR     79  70  74 NE3       29.97R
HURLBURT       CLEAR     73  70  91 N3        29.96S
CRESTVIEW      CLOUDY    72  70  93 CALM      30.00R
PENSACOLA      CLEAR     75  72  90 NE3       29.97R
$$

!ALZ063-066-270300
...South Alabama...

CITY           SKY/WX    TMP DP  RH WIND       PRES   REMARKS
DOTHAN         PTCLDY    75  72  90 SW3       30.03R
OZARK CAIRNS   CLEAR     73  71  92 NW3       29.99R
FT RUCKER HELI CLEAR     74  70  87 CALM      29.99R
RUCKER HELI 3  NOT AVBL
RUCKER HELI 2  NOT AVBL
FLORALA APT    NOT AVBL
ANDALUSIA      CLEAR     76  71  85 CALM      29.99R
TROY           CLEAR     73  71  93 S5        30.02R
EUFALA         FAIR      73  67  81 CALM      29.99R
MOBILE         PTCLDY    71  70  96 CALM      29.99R
$$

!GAZ120>161-270300
...Southwest and South Central Georgia...

CITY           SKY/WX    TMP DP  RH WIND       PRES   REMARKS
THOMASVILLE    FAIR      72  72 100 CALM      30.01S
BAINBRIDGE     CLEAR     75  70  83 CALM      30.00R
MOODY AFB      CLEAR     74  68  81 E5        29.99R
VALDOSTA       CLEAR     73  72  96 CALM      29.99S
MOULTRIE       CLEAR     73  72  94 CALM      30.01S
BLAKELY        CLEAR     73  70  88 CALM      30.00R
ALBANY         PTCLDY    75  71  87 E5        30.01S
TIFTON         FAIR      70  70 100 CALM      30.01S
FITZGERALD     FAIR      74  73  97 CALM      30.03S
CORDELE          N/A     80  70  70 CALM      30.02R
AMERICUS       FAIR      75  64  69 CALM      30.03R
HOMERVILLE     FAIR      72  70  94 E3        30.00F
$$

!GMZ750-755-770-775-270300
...Coastal and Buoy Obs...

STATION/POSITION TIME  TEMP    WIND        PRES    VSBY  WAVE
                       AIR SEA DIR/SP/G                  HT/PER
                 (UTC) (F)     (DEG/KT/KT) (MB)    (MI)  (FT/S)
KEATON BEACH     0200   78     120/  6/  7 1015.8R
CEDAR KEY        0200   77     200/ 12/ 16 1016.3R
C TOWER          0200   81      60/  9/ 10 1015.8R
APALACHICOLA BUO 0150   83 86   90/  4/  6 1015.1R         1/ 3
PANAMA CITY BUOY 0150   84 86              1015.2R         1
MOBILE BUOY      0200   83 86   CALM  /  2 1015.0R
ORANGE BCH AL BU 0150   82 86  120/  4/  6 1015.0R         1
$$




USA.gov is the U.S. government's official web portal to all federal, state and local government web resources and services.